Overview Statistics Trail Chart Weather Telemetry Raw packets
 

This is the latest recevied weather packets stored in our database for station/object DK9HI-WX. If no packets are shown the sender has not sent any weather packets the latest 10 day(s).

<< 8 9 10 11 12 13 14 >>
Time Temp. Humidity Pressure Rain* Wind** Luminosity Snow
1787950220 20.56° C 95% 1011 hPa - - - -
1787949620 20.56° C 92% 1010.8 hPa - - - -
1787949020 20.56° C 92% 1010.5 hPa - - - -
1787948420 20.56° C 93% 1010.6 hPa - - - -
1787947820 20.56° C 95% 1010.3 hPa - - - -
1787947220 20° C 94% 1010.2 hPa - - - -
1787946629 20.56° C 92% 1010.1 hPa - - - -
1787946020 20.56° C 92% 1010.2 hPa - - - -
1787945420 20.56° C 90% 1010.3 hPa - - - -
1787944820 21.11° C 88% 1010.3 hPa - - - -
1787944220 21.67° C 86% 1009.9 hPa - - - -
1787943620 21.67° C 86% 1009.7 hPa - - - -
1787943020 21.67° C 87% 1009.6 hPa - - - -
1787942420 21.67° C 87% 1009.4 hPa - - - -
1787941819 22.22° C 86% 1009.3 hPa - - - -
1787941219 22.22° C 85% 1009.2 hPa - - - -
1787940619 22.78° C 85% 1009.3 hPa - - - -
1787940020 22.78° C 86% 1009.2 hPa - - - -
1787939419 22.78° C 86% 1009.2 hPa - - - -
1787938819 23.33° C 89% 1009.2 hPa - - - -
1787938219 23.33° C 90% 1009.2 hPa - - - -
1787937620 23.33° C 94% 1009 hPa - - - -
1787937019 23.33° C 100% 1008.6 hPa - - - -
1787936419 23.33° C 100% 1008.6 hPa - - - -
1787935820 23.33° C 100% 1008.7 hPa - - - -

* Rain since midnight (hover to see other rain measurements)
** Current wind speed in m/s (hover to see current wind gust speed)